Regional Weather Roundup
Issued by NWS Newport/Morehead, NC

Current Version | Previous Version | Text Only | Print | Product List | Glossary On
Versions: 1 2 3 4 5 6 7 8 9 10 11 12 13 14 15 16 17 18 19 20 21 22 23 24 25 26 27 28 29 30 31 32 33 34 35 36 37 38 39 40 41 42 43 44 45 46 47 48 49 50
000
ASUS42 KMHX 030013
RWRMHX
WEATHER ROUNDUP FOR EASTERN NORTH CAROLINA
NATIONAL WEATHER SERVICE NEWPORT/MOREHEAD CITY NC
800 PM EDT WED SEP 02 2015

NOTE: "FAIR" INDICATES FEW OR NO CLOUDS BELOW 12,000 FEET
WITH NO SIGNIFICANT WEATHER AND/OR OBSTRUCTIONS TO VISIBILITY

NCZ015>017-031-032-045>047-102-103-030100-
NORTH COAST

CITY           SKY/WX    TMP DP  RH WIND       PRES   REMARKS
EDENTON        MOCLDY    80  70  72 NE14G22   29.97R
ELIZABETH CITY HVY RAIN  73  69  87 N15G31    29.96S FOG
KITTY HAWK     PTCLDY    80  70  71 CALM      29.94S
MANTEO         PTCLDY    79  73  83 S3        29.95S

$$

NCZ045>047-081-094-103-104-030100-
CENTRAL COAST

CITY           SKY/WX    TMP DP  RH WIND       PRES   REMARKS
FRISCO         PTCLDY    77  71  82 CALM      29.96R
SWANQUARTER      N/A     81 N/A N/A S2        29.91S

$$

NCZ095-097-098-100-101-030100-
SOUTHERN COAST

CITY           SKY/WX    TMP DP  RH WIND       PRES   REMARKS
BEAUFORT       CLEAR     79  75  87 S3        29.96R
CEDAR ISLAND     N/A     81 N/A N/A S3        30.00S
JACKSONVILLE   PTCLDY    80  74  81 S5        29.94S
PINEY ISLAND   CLEAR    N/A N/A N/A S5        29.95S
WILMINGTON     PTCLDY    82  73  74 S6        29.95R


$$

NCZ011>013-027>030-043-044-078>080-089-090>093-098-030100-
COASTAL PLAIN

CITY           SKY/WX    TMP DP  RH WIND       PRES   REMARKS
AHOSKIE        PTCLDY    79  68  68 N12       29.96R
CLINTON        PTCLDY    81  74  78 CALM      29.95S
ELIZABETHTOWN  PTCLDY    83  73  70 CALM      29.95R
GOLDSBORO      NOT AVBL
GREENVILLE     CLEAR     81  75  83 CALM      29.96S
HAVELOCK       CLEAR     80  74  81 S5        29.96S
KENANSVILLE      N/A     78  75  91 CALM      29.95S
KINSTON        CLEAR     81  73  78 CALM      29.95S
NEW BERN       CLEAR     81  74  79 S6        29.95S
RICHLANDS      CLEAR     82  72  69 S5        29.95S
ROCKY MOUNT    CLEAR     81  72  74 CALM      29.94S
WASHINGTON     CLEAR     81  72  72 SE3       29.94S
WHITEVILLE     PTCLDY    83  74  74 SW3       29.95S

$$

AMZ130-135-150-152-154-156-158-170-250-252-270-ANZ085-086-088-633-658-670-030100-
MARINE OBSERVATIONS

STATION/POSITION TIME  TEMP    WIND        PRES    WAVE   SWELL
                       AIR SEA DIR/SP/G            HT/PER HT/PER
                 (UTC) (F)     (DEG/KT/KT) (MB)    (FT/S) (FT/S)
CHESAPEAKE LIGHT 0000   76     240/ 10/ 11 1014.5
64 E VA BEACH    2350   80 80  230/  8/ 10 1013.6    2/ 6   2/ 6
DUCK             2300   82 79  180/  3/  4 1013.3
2 E DUCK         2311      81                N/A     1/13
OREGON INLET     2300   81 82  190/  6/  7 1014.0
13E OREGON INLT  0000      80                N/A     1/ 8
HATTERAS CG      2300   82 83  220/  2/  4 1013.9
DIAMOND BUOY     2350   81 86  330/  2/  4 1014.4    2/ 6   2/ 6
CAPE LOOKOUT     0000   81     210/  3/  4 1014.2
BEAUFORT LAB     2300   83 82  190/  5/  7 1013.6
30 SE NEW RVR IN 2308   82 83  230/  8/ 10 1014.6
30 SE NEW RVR IN 2325      83                N/A     2/ 9
27 SE WRIGHTSVLE 2300   80 83  250/  8/ 10   N/A
5 SE WRIGHTSVLE  2308   83 83  210/ 12/ 16 1014.1
225 S CAPE HAT   2350   83 84  270/  8/ 10 1014.8    2/ 9   2/ 9
41 SE CHARLESTON 2350   82 85  220/  6/  6 1014.9    2/ 9   2/ 9

$$



USA.gov is the U.S. government's official web portal to all federal, state and local government web resources and services.